M5LOW Weather Reports


time (UTC)temp
F
wind
direction
speed
knots
gust
knots
rain 1hr
in
rain 24hr
in
rain mn
in
humidity
%
barometer
mb
20260503220504 46 172 0.0 0.9 0.00 0.95 0.91 92 1013.5
20260503220004 46 215 0.0 0.9 0.00 0.95 0.91 92 1013.5
20260503215504 46 355 0.0 0.9 0.00 0.95 0.91 92 1013.5
20260503213504 46 10 0.0 1.7 0.00 0.95 0.91 92 1013.5
20260503213004 46 69 0.9 1.7 0.00 0.95 0.91 92 1013.5
20260503212504 46 301 0.0 0.9 0.00 0.95 0.91 92 1013.5
20260503212004 46 1 0.0 0.9 0.00 0.95 0.91 92 1013.5
20260503211503 46 141 0.0 0.9 0.00 0.95 0.91 92 1013.5
20260503210005 45 44 0.9 1.7 0.00 0.95 0.91 93 1013.3
20260503205504 45 91 0.0 0.9 0.00 0.95 0.91 93 1013.2
20260503205004 45 86 0.0 1.7 0.00 0.97 0.91 93 1013.5
20260503204504 46 23 0.0 1.7 0.00 0.97 0.91 93 1013.5
20260503204003 46 79 0.0 0.9 0.00 0.97 0.91 93 1013.5
20260503203504 46 181 0.0 1.7 0.00 0.97 0.91 94 1013.2
20260503203004 46 99 0.0 1.7 0.00 0.97 0.91 94 1013.2
20260503202504 46 116 0.9 1.7 0.00 0.97 0.91 94 1013.2
20260503202003 46 355 0.0 1.7 0.00 0.97 0.91 94 1013.2
20260503201504 46 289 0.0 1.7 0.00 0.97 0.91 94 1013.0
20260503201004 46 2 0.0 2.6 0.00 0.97 0.91 94 1013.2
20260503200504 46 105 0.0 2.6 0.00 0.97 0.91 94 1012.9
20260503200004 46 31 0.0 0.9 0.00 0.97 0.91 94 1012.9
20260503195504 46 118 0.9 0.9 0.00 0.97 0.91 94 1012.9
20260503195004 46 108 0.0 0.9 0.00 0.97 0.91 94 1012.9
20260503194504 46 95 0.0 0.9 0.00 0.97 0.91 94 1012.9
20260503194004 46 270 0.9 1.7 0.00 0.97 0.91 94 1012.9
20260503193503 46 134 0.9 1.7 0.00 0.97 0.91 95 1012.9
20260503193004 46 92 0.9 0.9 0.00 0.97 0.91 95 1012.9
20260503192504 46 121 0.9 1.7 0.00 0.97 0.91 95 1012.6
20260503192004 46 79 0.9 4.3 0.00 0.97 0.91 95 1012.6
20260503191503 46 118 0.0 1.7 0.00 0.97 0.91 95 1012.7
20260503191004 46 95 0.9 1.7 0.00 0.97 0.91 95 1012.5
20260503190504 46 23 0.9 1.7 0.00 0.97 0.91 95 1012.5
20260503190004 46 227 0.9 2.6 0.00 0.97 0.91 95 1012.2
20260503184504 46 118 0.0 1.7 0.00 0.97 0.91 95 1012.2
20260503184004 46 155 0.0 1.7 0.00 0.97 0.91 95 1012.3
20260503183504 46 115 0.9 2.6 0.00 0.97 0.91 95 1012.5
20260503183005 46 169 0.9 2.6 0.00 0.97 0.91 95 1012.2
20260503182504 46 111 0.9 2.6 0.00 0.97 0.91 95 1012.2
20260503181505 46 89 1.7 2.6 0.00 0.97 0.91 95 1012.2
20260503180004 46 61 0.9 0.9 0.00 0.97 0.91 95 1011.9
20260503175504 46 16 0.9 2.6 0.00 0.97 0.91 95 1012.2
20260503175004 46 93 0.9 1.7 0.00 0.97 0.91 95 1011.9
20260503174004 46 131 0.9 1.7 0.00 0.97 0.91 95 1011.9
20260503173505 46 171 0.9 2.6 0.00 0.97 0.91 95 1011.9
20260503173004 47 141 0.9 2.6 0.00 0.97 0.91 95 1011.9
20260503172504 47 76 0.9 2.6 0.00 0.97 0.91 95 1011.9
20260503172004 47 143 0.0 1.7 0.00 0.97 0.91 95 1011.9
20260503171503 47 194 0.9 1.7 0.00 0.97 0.91 95 1011.9
20260503171004 46 100 0.9 1.7 0.00 0.97 0.91 95 1011.9
20260503170504 47 198 1.7 1.7 0.00 0.97 0.91 95 1011.9
20260503151004 48 139 0.9 2.6 0.00 0.97 0.91 96 1011.9
20260503131004 49 189 0.9 1.7 0.00 0.96 0.90 96 1011.8
20260503130504 49 109 1.7 1.7 0.00 0.96 0.90 96 1011.5
20260503081504 49 154 0.9 1.7 0.11 0.91 0.84 97 1011.2
20260503081004 49 128 1.7 1.7 0.83 0.90 0.83 97 1011.2
20260503072504 48 183 0.9 2.6 0.75 0.82 0.75 97 1011.2
20260503072004 49 184 1.7 2.6 0.74 0.81 0.74 97 1011.2
20260503071504 49 223 1.7 11.3 0.73 0.80 0.73 97 1011.2